GW6707 Weather Reports


Display with metric or nautical units.
time (UTC)temp
F
wind
direction
speed
MPH
gust
MPH
rain 1hr
in
rain 24hr
in
rain mn
in
humidity
%
barometer
mb
20260506001522 51 184 0.0 2.0 0.00 1.05 0.22 95 1013.0
20260506000022 51 179 0.0 2.0 0.03 1.05 0.22 95 1013.0
20260505234522 51 134 1.0 2.0 0.03 1.04 0.21 95 1013.3
20260505233025 51 134 0.0 2.0 0.07 1.04 0.21 95 1013.4
20260505231517 51 124 0.0 3.0 0.18 1.04 0.21 95 1013.5
20260505230031 51 136 1.0 2.0 0.18 1.02 0.18 95 1013.6
20260505224526 51 136 0.0 2.0 0.18 1.00 0.17 95 1013.7
20260505223028 51 135 0.0 2.0 0.14 0.96 0.13 95 1013.7
20260505221524 51 206 0.0 2.0 0.06 0.85 0.02 95 1013.7
20260505220024 51 148 0.0 2.0 0.03 0.83 0.00 95 1013.8
20260505214522 51 137 0.0 2.0 0.03 0.81 0.81 95 1014.0
20260505213028 51 118 0.0 2.0 0.03 0.81 0.81 95 1014.2
20260505211526 51 117 0.0 2.0 0.02 0.79 0.79 94 1014.3
20260505210026 51 119 1.0 3.0 0.05 0.79 0.79 95 1014.3
20260505204521 51 136 0.0 2.0 0.07 0.78 0.78 94 1014.4
20260505203007 51 130 0.0 2.0 0.12 0.77 0.77 94 1014.5
20260505201510 51 130 0.0 2.0 0.14 0.77 0.77 94 1014.5
20260505200014 50 123 0.0 2.0 0.11 0.74 0.74 94 1014.5
20260505194519 50 226 0.0 2.0 0.11 0.71 0.71 94 1014.3
20260505193026 50 146 1.0 3.0 0.06 0.65 0.65 94 1014.3
20260505191507 50 179 0.0 2.0 0.04 0.62 0.62 94 1014.2
20260505190025 50 188 0.0 2.0 0.03 0.62 0.62 94 1014.1
20260505184518 50 220 0.0 2.0 0.03 0.59 0.59 93 1013.9
20260505183023 50 216 0.0 2.0 0.06 0.59 0.59 93 1014.0
20260505181532 50 298 0.0 2.0 0.09 0.58 0.58 93 1014.0
20260505180011 50 271 1.0 2.0 0.11 0.58 0.58 93 1013.9
20260505174519 50 271 1.0 2.0 0.10 0.56 0.56 93 1013.9
20260505173034 50 232 0.0 2.0 0.07 0.52 0.52 92 1014.0
20260505171540 50 232 0.0 2.0 0.03 0.48 0.48 92 1014.1
20260505170017 51 142 0.0 2.0 0.02 0.47 0.47 92 1014.1
20260505164514 51 307 0.0 3.0 0.01 0.46 0.46 92 1014.1
20260505163016 51 288 1.0 2.0 0.01 0.45 0.45 92 1014.2
20260505161522 51 248 0.0 2.0 0.01 0.45 0.45 92 1014.2
20260505153018 51 257 0.0 2.0 0.00 0.44 0.44 91 1014.5
20260505151530 51 251 0.0 2.0 0.01 0.44 0.44 91 1014.4
20260505124526 51 228 0.0 2.0 0.00 0.40 0.40 89 1014.9
20260505123029 51 220 0.0 2.0 0.00 0.40 0.40 89 1014.9
20260505121532 51 222 0.0 2.0 0.00 0.40 0.40 90 1015.0
20260505120048 52 306 0.0 3.0 0.01 0.40 0.40 88 1015.0
20260505114503 51 205 0.0 2.0 0.01 0.40 0.40 89 1015.1
20260505113006 51 270 0.0 2.0 0.01 0.40 0.40 89 1015.3
20260505111512 51 153 0.0 2.0 0.00 0.39 0.39 89 1015.3
20260505101519 53 302 1.0 2.0 0.04 0.38 0.38 87 1015.3
20260505100022 52 162 1.0 3.0 0.05 0.37 0.37 87 1015.4
20260505094522 52 209 0.0 2.0 0.06 0.36 0.36 88 1015.6
20260505093025 52 301 0.0 2.0 0.05 0.35 0.35 86 1015.6
20260505091521 51 296 0.0 3.0 0.04 0.33 0.33 86 1015.5
20260505090026 52 208 0.0 2.0 0.03 0.32 0.32 87 1015.4
20260505084516 52 322 1.0 3.0 0.02 0.29 0.29 84 1015.2
20260505083021 51 317 1.0 4.0 0.03 0.29 0.29 84 1015.0
20260505081528 51 318 0.0 3.0 0.03 0.29 0.29 83 1015.0
20260505080008 51 312 0.0 2.0 0.07 0.28 0.28 84 1015.0
20260505074515 51 320 0.0 3.0 0.14 0.27 0.27 85 1015.0
20260505073032 51 315 1.0 4.0 0.17 0.26 0.26 84 1015.2
20260505071524 51 9 0.0 2.0 0.17 0.25 0.25 86 1015.3
20260505070026 51 296 0.0 2.0 0.14 0.21 0.21 87 1015.3
20260505064531 51 316 0.0 3.0 0.07 0.13 0.13 83 1015.0
20260505063019 51 215 0.0 2.0 0.04 0.09 0.09 84 1014.9
20260505061531 52 9 0.0 5.0 0.04 0.07 0.07 83 1014.8
20260505060028 52 329 1.0 7.0 0.03 0.07 0.07 81 1014.7
20260505054544 51 313 2.0 3.0 0.03 0.05 0.05 83 1014.6
20260505053032 51 290 1.0 4.0 0.03 0.04 0.04 83 1014.4
20260505051521 51 319 0.0 2.0 0.02 0.03 0.03 82 1014.2
20260505041528 53 244 1.0 2.0 0.00 0.00 0.00 79 1014.2
20260505040021 54 317 0.0 2.0 0.00 0.00 0.00 75 1014.2
20260505034528 55 311 1.0 3.0 0.00 0.00 0.00 72 1014.1
20260505033028 55 319 0.0 2.0 0.00 0.00 0.00 72 1014.3
20260505031542 55 309 1.0 3.0 0.00 0.00 0.00 70 1014.3
20260505030030 55 228 0.0 4.0 0.00 0.00 0.00 70 1014.2
20260505024533 55 290 0.0 2.0 0.00 0.00 0.00 68 1014.5
20260505023011 55 265 0.0 2.0 0.00 0.00 0.00 70 1015.1
20260505021518 55 195 0.0 2.0 0.00 0.00 0.00 69 1015.2
20260505020029 56 315 0.0 2.0 0.00 0.00 0.00 69 1015.4
20260505014528 56 319 0.0 2.0 0.00 0.00 0.00 67 1015.4
20260505013026 56 318 1.0 3.0 0.00 0.00 0.00 67 1015.5
20260505011509 56 301 1.0 3.0 0.00 0.00 0.00 67 1015.7
20260505010016 57 13 0.0 2.0 0.00 0.00 0.00 64 1016.0
20260505004540 56 294 1.0 3.0 0.00 0.00 0.00 64 1016.4
20260505003024 56 290 2.0 3.0 0.00 0.00 0.00 66 1016.6